Theta_e
310 310 310 310 312 314 315 315 315 315 316 318 317 312 310 310 308 308 304 302 302 300 298 299 297 296 295 294 294 294 293 294 291 292 294 294 294 294 295 297 297 297 298
309 310 311 312 312 312 313 313 312 310 308 309 307 306 304 304 302 300 299 298 297 295 295 295 294 295 293 292 292 292 292 292 291 290 292 291 291 292 293 293 295 296 296
303 305 306 307 308 309 309 309 306 304 303 303 302 301 300 298 297 296 296 295 294 294 293 293 292 292 291 291 291 291 291 293 291 290 289 289 290 290 290 291 291 292 295
301 301 301 302 303 304 305 304 302 301 300 299 298 297 296 295 294 293 293 292 292 292 292 292 291 291 290 290 290 290 290 288 288 287 287 287 287 288 286 285 286 287 288
300 299 299 300 300 301 300 300 299 297 296 295 294 293 293 293 292 291 291 291 290 290 291 292 292 290 290 291 290 288 288 286 286 285 284 285 284 283 283 285 285 286 287
298 298 299 298 298 298 298 297 296 294 293 292 291 291 290 289 293 293 290 289 289 288 288 288 289 287 288 290 291 292 290 287 286 285 285 283 284 285 286 284 285 284 282
295 295 295 295 295 296 295 295 293 292 291 290 290 289 289 288 292 291 289 287 287 287 287 287 287 288 286 288 289 291 290 291 292 289 286 286 285 286 286 285 284 284 284
287 286 285 285 288 290 291 291 291 290 289 288 288 288 287 287 291 290 288 285 285 285 286 286 286 286 287 286 286 285 285 285 286 287 287 286 286 287 287 287 286 285 286
280 280 281 282 283 285 286 287 287 287 286 286 285 285 285 285 289 289 286 284 284 284 284 285 285 285 287 287 284 283 282 283 287 287 287 287 287 288 287 284 282 281 280
278 278 279 279 280 280 281 282 281 283 284 283 283 283 282 282 287 286 285 282 282 282 282 283 283 283 284 284 282 281 279 280 280 281 282 282 284 283 285 284 282 280 280
277 277 276 276 278 278 278 279 280 280 280 280 280 281 281 281 283 284 284 281 280 280 280 280 280 281 282 283 283 280 280 281 281 279 278 278 279 280 281 282 283 282 280
274 274 273 274 275 275 274 276 276 277 277 277 277 278 279 280 281 282 282 281 281 278 278 278 279 281 281 281 280 281 281 280 276 275 275 275 276 277 279 280 281 282 283
272 272 271 272 273 274 273 273 273 274 275 276 276 276 276 278 277 278 279 279 278 277 277 278 279 279 278 277 278 278 276 275 273 272 272 273 275 276 277 276 277 278 279
269 271 272 271 272 273 273 273 272 271 271 272 272 272 273 273 274 276 276 275 276 276 277 276 277 275 275 274 273 274 273 273 271 270 270 271 272 272 271 273 272 273 272
270 271 271 271 271 270 272 272 272 274 273 271 271 271 270 270 274 277 277 276 275 277 273 271 270 269 269 269 269 269 270 270 268 268 268 268 268 269 268 270 269 269 268
269 269 270 270 270 271 271 271 276 276 276 276 276 274 273 275 276 277 277 278 277 275 269 266 267 267 266 267 266 266 267 266 266 266 266 266 266 266 266 267 268 267 266
267 268 269 269 269 269 269 269 268 271 275 275 275 274 275 274 275 276 276 275 273 270 264 265 264 264 265 265 265 264 264 265 266 265 265 265 265 265 265 265 266 266 265
267 267 267 267 267 267 267 267 268 267 266 267 270 273 272 273 274 274 274 269 265 265 262 262 262 263 263 263 263 262 263 263 263 263 263 264 264 263 263 263 264 264 264
264 265 264 266 267 266 266 266 267 266 265 265 266 268 269 271 272 271 270 263 262 262 263 262 262 262 262 262 262 262 262 262 263 263 263 263 263 263 263 263 263 264 264
263 266 263 263 264 264 264 263 262 261 263 262 261 261 263 265 263 260 258 258 260 260 261 261 261 261 261 261 262 262 262 262 262 263 263 263 264 264 263 263 263 263 263
260 261 263 260 260 261 261 259 259 258 258 256 257 259 271 260 258 259 258 257 257 258 259 260 261 262 262 262 262 263 263 263 263 263 263 264 264 263 264 264 264 264 264
257 258 257 256 258 258 257 256 256 255 255 255 256 255 267 256 257 257 256 257 258 257 258 258 261 261 262 262 262 263 263 263 264 264 265 266 266 267 267 267 266 264 264
256 256 255 254 254 256 254 253 253 254 254 254 255 257 254 254 254 255 256 257 258 260 260 259 260 261 262 262 263 264 263 263 265 266 266 266 267 268 269 269 268 267 266
251 252 252 252 251 252 251 252 253 255 255 253 253 254 254 253 255 255 256 258 256 258 259 260 260 261 261 262 263 264 265 266 267 267 267 268 269 270 270 269 268 267 267
249 250 251 253 251 253 253 254 255 255 256 257 256 254 252 253 254 254 255 254 255 258 258 259 261 261 261 262 262 263 264 265 267 269 271 271 271 271 269 268 268 268 267
248 250 253 254 254 255 255 255 256 258 259 259 259 259 256 255 255 255 257 256 257 258 258 260 260 260 261 262 263 265 267 269 270 273 274 272 268 268 267 266 267 267 268
Wind_Speed
5 4 5 5 6 6 6 6 6 6 8 9 10 8 8 8 8 7 7 7 7 6 4 6 7 5 3 3 3 2 2 3 5 5 4 3 6 7 10 9 9 10 8
4 4 5 4 4 5 5 6 6 7 5 7 7 7 7 8 7 7 8 7 8 8 7 7 7 4 5 4 3 4 3 3 3 10 6 3 6 5 7 9 8 9 9
4 4 5 6 5 5 5 5 5 6 6 6 7 8 8 7 7 7 7 7 7 7 7 7 7 6 4 3 3 3 3 2 3 4 7 1 4 4 4 6 8 8 6
5 5 6 6 6 6 5 6 6 6 7 7 7 7 7 7 7 7 7 6 6 6 6 6 6 6 6 5 5 5 4 3 4 4 6 6 4 3 3 4 11 6 10
6 6 8 6 6 6 7 6 5 6 6 6 6 6 6 6 5 7 7 6 6 6 4 4 4 5 7 6 3 4 4 3 3 4 5 5 5 3 5 4 9 11 10
6 6 5 5 6 6 6 6 7 6 5 5 6 6 7 4 10 10 8 6 5 5 4 3 4 4 4 6 6 7 6 4 5 4 5 6 8 5 5 6 8 10 10
6 6 7 7 6 6 5 5 6 6 4 6 6 7 6 5 10 10 8 4 4 4 3 3 3 3 3 3 5 7 7 9 11 7 10 8 10 6 8 11 10 10 12
8 8 9 9 8 7 5 6 4 4 6 5 6 6 6 4 9 9 7 4 3 2 3 3 2 2 3 4 5 5 5 5 6 5 8 9 8 6 7 10 13 16 13
8 8 8 7 7 7 6 6 3 2 3 3 3 5 6 4 8 6 3 2 1 1 2 2 2 3 6 8 4 5 4 5 6 11 15 19 20 20 17 10 9 10 15
8 7 7 8 7 7 6 6 3 1 3 4 5 5 6 6 8 6 5 2 3 3 3 4 7 6 9 10 7 6 8 7 7 9 7 10 11 9 16 10 9 11 11
7 7 8 8 7 7 5 4 4 4 5 5 6 5 6 6 7 10 10 4 3 3 2 2 2 8 10 12 13 6 8 12 11 8 8 7 7 7 6 6 8 9 11
6 7 7 7 6 6 6 7 6 4 5 4 6 7 6 6 11 12 13 12 9 4 3 3 3 11 11 12 10 13 15 14 5 6 7 7 8 7 6 6 9 11 12
5 5 5 5 6 7 7 7 5 7 5 5 5 5 5 5 6 12 11 11 10 6 4 7 10 11 12 8 12 15 11 6 6 7 8 8 8 9 11 10 10 12 15
4 4 5 5 6 6 5 5 6 5 5 5 5 4 4 4 3 2 2 2 4 4 6 3 8 9 9 8 6 8 6 6 7 8 8 9 9 9 9 8 10 10 13
3 4 6 5 5 4 5 4 5 4 4 3 3 3 3 2 3 7 7 3 2 7 5 2 4 5 5 5 4 4 5 6 6 6 7 9 9 9 9 8 9 10 12
4 4 4 4 4 4 4 4 11 10 8 9 8 5 3 6 9 9 9 11 14 14 3 3 4 5 6 6 6 6 5 6 5 6 7 8 9 10 11 10 10 10 13
6 6 4 5 4 3 3 3 3 5 8 10 9 8 8 8 10 9 12 13 12 8 3 4 5 5 6 6 6 6 7 7 7 7 7 8 9 10 12 11 11 11 13
5 6 3 4 4 4 4 4 3 3 3 3 6 7 9 11 10 13 12 8 4 5 1 3 4 5 6 6 6 7 7 7 7 8 8 8 9 10 11 11 11 12 13
3 2 3 3 2 3 3 3 2 3 2 2 3 4 7 11 9 12 11 2 3 5 5 5 4 6 7 6 7 7 8 8 9 9 10 9 10 10 12 11 12 17 17
3 3 2 2 2 2 3 2 1 1 2 2 3 3 4 2 2 2 1 1 3 4 5 6 6 6 7 7 7 8 8 9 9 9 10 10 10 10 12 14 13 14 13
2 2 3 2 2 1 1 2 2 2 2 2 3 3 11 2 2 3 2 3 4 4 5 5 6 7 7 7 8 8 9 10 10 11 11 12 12 13 13 14 15 15 15
2 2 2 2 2 2 2 2 3 3 3 3 4 4 11 1 3 3 4 5 4 4 5 5 6 7 7 8 9 10 11 12 12 12 13 13 14 14 15 15 14 13 14
2 2 2 2 2 3 2 3 3 3 3 4 4 4 3 3 3 4 5 5 4 6 6 5 7 8 8 8 9 10 12 13 13 13 15 16 16 16 15 16 13 14 14
2 2 3 3 2 2 3 4 3 4 4 4 4 4 4 3 4 5 5 6 5 6 6 7 7 11 11 11 10 11 12 14 14 16 21 18 17 20 16 13 16 17 16
2 3 3 4 3 4 4 4 4 4 4 4 4 3 4 4 5 5 5 4 5 6 8 8 9 12 15 17 19 22 22 25 22 24 18 20 22 18 16 16 17 16 18
3 4 4 4 4 4 4 4 5 4 4 4 4 5 4 5 5 5 6 5 6 7 9 9 11 17 19 17 20 23 25 27 26 27 18 15 11 15 13 15 20 15 17
Wind_Direction
287 270 249 243 231 226 218 215 206 193 190 192 191 174 172 171 171 166 166 165 178 177 169 183 204 193 195 204 203 196 197 178 238 274 243 267 291 291 300 303 306 304 296
289 290 271 245 215 212 211 198 179 188 179 170 161 161 163 172 169 167 169 176 179 184 186 181 202 194 207 204 201 223 222 218 231 275 283 269 252 267 275 295 297 296 295
254 260 278 282 268 227 223 212 193 176 178 169 164 171 173 174 170 178 178 178 184 188 185 185 194 187 212 208 218 234 227 235 240 260 288 284 276 281 304 296 293 292 284
231 244 253 250 245 252 243 219 202 188 179 180 182 176 173 174 178 177 175 179 184 187 189 193 194 195 212 212 220 222 216 223 240 258 281 287 265 298 301 306 315 314 312
237 239 243 242 238 235 228 223 213 196 194 180 167 177 173 175 176 176 176 177 177 181 192 204 220 225 229 222 200 231 223 226 236 253 265 277 291 307 318 309 299 309 308
257 262 289 271 256 246 245 223 199 203 197 177 195 179 175 176 166 164 163 169 171 182 205 235 249 256 261 261 248 232 226 236 241 241 268 265 281 287 308 299 306 315 320
354 349 354 335 293 269 259 231 225 207 175 190 189 180 186 172 153 150 142 155 171 192 201 212 237 253 262 265 269 275 273 258 247 259 273 271 289 296 301 302 295 288 281
20 13 2 352 338 320 283 246 229 198 195 190 186 175 155 171 155 150 143 141 172 204 211 223 224 256 277 294 289 278 261 263 261 264 266 278 279 288 283 292 296 292 284
19 8 357 353 343 334 321 301 297 229 182 194 155 153 140 108 122 117 111 118 157 76 18 9 12 21 9 356 354 326 319 273 289 296 297 296 295 295 294 298 287 294 296
6 -0 357 359 5 6 353 351 329 356 101 94 86 84 90 93 73 67 70 83 85 72 61 60 55 25 357 341 338 307 305 306 300 299 297 294 294 287 286 270 286 283 292
0 17 13 4 7 1 351 359 6 40 65 62 82 74 77 78 69 63 56 62 67 74 74 73 39 344 333 329 324 318 303 313 317 312 306 303 301 294 284 269 255 260 271
17 22 20 15 16 14 15 10 9 36 77 74 90 80 62 53 61 56 48 39 30 31 25 6 333 333 332 327 329 318 321 328 320 305 308 306 304 305 298 294 287 277 271
21 27 17 19 29 22 38 33 20 16 23 39 70 75 75 64 57 40 31 21 15 12 351 332 337 340 341 340 339 337 345 337 325 318 313 308 309 311 310 299 290 288 283
21 24 35 28 27 44 47 55 59 46 31 34 56 67 61 62 40 20 26 359 346 338 309 331 351 356 356 347 342 343 332 325 316 306 301 302 301 303 300 306 303 305 296
50 37 40 32 17 11 59 65 64 49 78 77 60 65 50 26 358 6 1 355 349 355 28 28 4 1 350 345 333 317 307 301 293 290 293 294 298 299 296 302 294 297 287
39 28 32 43 41 31 10 33 52 62 64 55 50 61 36 26 8 1 357 7 14 5 44 21 360 350 337 324 312 302 296 290 284 291 290 292 294 299 301 301 296 291 290
26 3 0 29 15 25 35 29 35 13 34 40 23 30 35 15 3 358 13 25 14 33 30 359 336 319 301 291 290 293 294 291 294 284 286 287 293 295 300 296 293 288 285
15 28 24 11 6 12 14 21 21 17 34 315 357 39 16 5 7 20 14 12 8 10 355 311 296 292 290 293 296 292 291 291 285 285 284 282 280 280 283 281 283 284 284
4 13 355 4 15 350 3 357 359 11 358 319 324 8 351 358 10 11 17 38 331 320 314 302 286 290 293 290 288 287 285 285 284 282 277 276 272 270 272 273 275 277 278
328 339 5 342 338 354 4 351 350 339 347 321 334 307 305 342 23 334 318 297 285 280 290 290 296 281 277 281 284 283 284 282 279 277 276 273 271 268 271 274 270 273 273
300 311 335 343 359 338 308 307 322 310 281 289 282 294 324 92 327 286 296 261 255 263 281 276 281 281 281 279 279 283 283 285 284 283 280 279 278 276 268 264 266 266 269
297 300 317 303 308 332 324 323 306 287 288 292 292 290 326 317 275 272 260 258 256 246 244 254 277 278 281 282 285 288 288 286 285 285 283 281 280 278 275 272 266 258 262
267 283 305 305 286 286 299 276 273 267 272 273 273 281 283 285 280 283 288 291 292 292 284 274 288 293 288 284 281 279 283 284 283 283 283 283 283 280 279 279 270 278 267
309 311 299 291 308 291 277 280 276 266 269 271 280 283 284 279 286 285 281 284 282 289 290 290 287 282 287 285 284 282 277 276 278 281 281 278 281 287 280 278 280 272 265
281 288 279 268 270 270 280 272 269 267 266 265 270 259 266 275 281 278 274 272 274 285 288 288 288 289 290 290 286 283 278 279 277 278 283 280 285 287 289 284 279 271 262
259 255 250 250 252 250 251 259 258 258 265 264 267 275 270 276 279 280 288 287 291 292 296 293 287 286 289 289 286 284 288 292 293 293 303 298 300 296 287 281 278 272 269